• In Hungary
  • List of Countries
  • For 7 days
  • Water Temperature
  • Satellite Maps
  • Weather Map
  • News
  • Weather Widgets
  • user-avatar
    Login

    Hourly Weather Santa Lucía

    Today, 17 December, Sunday

    Time Temperature Precipitation Wind Pressure Humidity
    00:00 +25°C° 0 mm 1 mps 740 mmHg 80%
    01:00 +24°C° 0 mm 1 mps 740 mmHg 82%
    02:00 +24°C° 0 mm 2 mps 740 mmHg 83%
    03:00 +24°C° 0 mm 2 mps 740 mmHg 84%
    04:00 +23°C° 0 mm 2 mps 740 mmHg 85%
    05:00 +23°C° 0 mm 2 mps 740 mmHg 85%
    06:00 +21°C° 0 mm 2 mps 740 mmHg 86%
    07:00 +25°C° 0 mm 2 mps 741 mmHg 74%
    08:00 +28°C° 0 mm 2 mps 741 mmHg 62%
    09:00 +30°C° 0 mm 2 mps 742 mmHg 51%
    10:00 +32°C° 0 mm 2 mps 741 mmHg 46%
    11:00 +35°C° 0 mm 3 mps 741 mmHg 42%
    12:00 +37°C° 0 mm 3 mps 740 mmHg 38%
    13:00 +37°C° 0 mm 3 mps 740 mmHg 39%
    14:00 +37°C° 0 mm 3 mps 739 mmHg 40%
    15:00 +36°C° 0 mm 3 mps 738 mmHg 41%
    16:00 +34°C° 0 mm 2 mps 738 mmHg 48%
    17:00 +31°C° 0 mm 2 mps 738 mmHg 54%
    18:00 +29°C° 0 mm 2 mps 738 mmHg 60%
    19:00 +28°C° 0 mm 2 mps 739 mmHg 64%
    20:00 +27°C° 0 mm 2 mps 739 mmHg 68%
    21:00 +26°C° 0 mm 2 mps 740 mmHg 71%
    22:00 +26°C° 0 mm 2 mps 740 mmHg 73%
    23:00 +25°C° 0 mm 2 mps 740 mmHg 75%

    Tomorrow, 18 December, Monday

    Time Temperature Precipitation Wind Pressure Humidity
    00:00 +25°C° 0 mm 2 mps 740 mmHg 77%
    01:00 +25°C° 0 mm 2 mps 740 mmHg 78%
    02:00 +25°C° 0 mm 2 mps 739 mmHg 79%
    03:00 +24°C° 0 mm 2 mps 739 mmHg 80%
    04:00 +24°C° 0 mm 2 mps 739 mmHg 80%
    05:00 +24°C° 0 mm 2 mps 739 mmHg 80%
    06:00 +24°C° 0 mm 2 mps 740 mmHg 80%
    07:00 +27°C° 0 mm 2 mps 740 mmHg 71%
    08:00 +29°C° 0 mm 2 mps 741 mmHg 63%
    09:00 +32°C° 0 mm 2 mps 742 mmHg 54%
    10:00 +32°C° 0 mm 2 mps 741 mmHg 51%
    11:00 +34°C° 0 mm 3 mps 741 mmHg 49%
    12:00 +35°C° 0 mm 3 mps 741 mmHg 46%
    13:00 +35°C° 0 mm 3 mps 740 mmHg 45%
    14:00 +36°C° 0 mm 3 mps 739 mmHg 44%
    15:00 +36°C° 0 mm 3 mps 738 mmHg 43%
    16:00 +34°C° 0 mm 3 mps 739 mmHg 50%
    17:00 +31°C° 0 mm 2 mps 739 mmHg 57%
    18:00 +29°C° 0 mm 1 mps 739 mmHg 64%
    19:00 +28°C° 0 mm 2 mps 740 mmHg 68%
    20:00 +27°C° 0 mm 2 mps 740 mmHg 72%
    21:00 +26°C° 0 mm 2 mps 741 mmHg 76%
    22:00 +26°C° 0 mm 2 mps 741 mmHg 78%
    23:00 +25°C° 0 mm 2 mps 741 mmHg 79%

    Day after tomorrow, 19 December, Tuesday

    Time Temperature Precipitation Wind Pressure Humidity
    00:00 +25°C° 0 mm 1 mps 741 mmHg 80%
    01:00 +25°C° 0 mm 1 mps 740 mmHg 81%
    02:00 +25°C° 0 mm 2 mps 740 mmHg 82%
    03:00 +24°C° 0 mm 2 mps 739 mmHg 82%
    04:00 +24°C° 0 mm 2 mps 740 mmHg 82%
    05:00 +24°C° 0 mm 2 mps 740 mmHg 83%
    06:00 +24°C° 0 mm 2 mps 740 mmHg 83%
    07:00 +27°C° 0 mm 2 mps 741 mmHg 73%
    08:00 +29°C° 0 mm 2 mps 741 mmHg 64%
    09:00 +32°C° 0 mm 2 mps 742 mmHg 55%
    10:00 +32°C° 0 mm 2 mps 741 mmHg 53%
    11:00 +34°C° 0 mm 2 mps 741 mmHg 50%
    12:00 +35°C° 0 mm 3 mps 740 mmHg 48%
    13:00 +35°C° 0 mm 3 mps 739 mmHg 46%
    14:00 +36°C° 0 mm 2 mps 739 mmHg 43%
    15:00 +37°C° 0 mm 2 mps 738 mmHg 40%
    16:00 +34°C° 0 mm 2 mps 738 mmHg 48%
    17:00 +31°C° 0 mm 2 mps 738 mmHg 55%
    18:00 +29°C° 0 mm 1 mps 739 mmHg 62%
    19:00 +28°C° 0 mm 1 mps 739 mmHg 66%
    20:00 +27°C° 0 mm 1 mps 740 mmHg 70%
    21:00 +27°C° 0 mm 1 mps 741 mmHg 74%
    22:00 +26°C° 0 mm 1 mps 740 mmHg 76%
    23:00 +26°C° 0 mm 1 mps 740 mmHg 78%

    20 December, Wednesday

    Time Temperature Precipitation Wind Pressure Humidity
    00:00 +25°C° 0 mm 1 mps 740 mmHg 80%
    01:00 +25°C° 0 mm 1 mps 740 mmHg 81%
    02:00 +25°C° 0 mm 1 mps 739 mmHg 83%
    03:00 +24°C° 0 mm 1 mps 739 mmHg 84%
    04:00 +24°C° 0 mm 1 mps 739 mmHg 84%
    05:00 +24°C° 0 mm 1 mps 740 mmHg 84%
    06:00 +24°C° 0 mm 1 mps 740 mmHg 84%
    07:00 +26°C° 0 mm 1 mps 741 mmHg 74%
    08:00 +29°C° 0 mm 1 mps 741 mmHg 65%
    09:00 +31°C° 0 mm 1 mps 742 mmHg 55%
    10:00 +34°C° 0 mm 2 mps 741 mmHg 48%
    11:00 +36°C° 0 mm 2 mps 740 mmHg 41%
    12:00 +38°C° 0 mm 2 mps 740 mmHg 34%
    13:00 +38°C° 0 mm 2 mps 739 mmHg 34%
    14:00 +38°C° 0 mm 2 mps 738 mmHg 33%
    15:00 +38°C° 0 mm 2 mps 737 mmHg 33%
    16:00 +35°C° 0 mm 2 mps 737 mmHg 41%
    17:00 +32°C° 0 mm 2 mps 738 mmHg 50%
    18:00 +29°C° 0 mm 2 mps 738 mmHg 58%
    19:00 +29°C° 0.1 mm 2 mps 739 mmHg 63%
    20:00 +28°C° 0.1 mm 1 mps 739 mmHg 68%
    21:00 +27°C° 0.1 mm 1 mps 740 mmHg 72%
    22:00 +26°C° 0 mm 1 mps 739 mmHg 75%
    23:00 +26°C° 0 mm 1 mps 739 mmHg 77%

    21 December, Thursday

    Time Temperature Precipitation Wind Pressure Humidity
    00:00 +25°C° 0 mm 1 mps 739 mmHg 79%
    01:00 +25°C° 0 mm 1 mps 739 mmHg 80%
    02:00 +25°C° 0 mm 1 mps 739 mmHg 81%
    03:00 +25°C° 0 mm 1 mps 738 mmHg 83%
    04:00 +24°C° 0 mm 1 mps 739 mmHg 84%
    05:00 +24°C° 0 mm 1 mps 739 mmHg 84%
    06:00 +24°C° 0 mm 1 mps 740 mmHg 85%
    07:00 +26°C° 0 mm 1 mps 740 mmHg 75%
    08:00 +29°C° 0 mm 1 mps 741 mmHg 64%
    09:00 +31°C° 0 mm 1 mps 741 mmHg 53%
    10:00 +33°C° 0 mm 1 mps 741 mmHg 46%
    11:00 +36°C° 0 mm 2 mps 740 mmHg 40%
    12:00 +38°C° 0 mm 2 mps 739 mmHg 33%
    13:00 +38°C° 0 mm 2 mps 739 mmHg 34%
    14:00 +38°C° 0 mm 2 mps 738 mmHg 35%
    15:00 +38°C° 0 mm 2 mps 737 mmHg 35%
    16:00 +35°C° 0 mm 2 mps 738 mmHg 43%
    17:00 +32°C° 0 mm 2 mps 738 mmHg 51%
    18:00 +30°C° 0 mm 1 mps 738 mmHg 59%
    19:00 +29°C° 0 mm 1 mps 739 mmHg 63%
    20:00 +28°C° 0 mm 1 mps 739 mmHg 67%
    21:00 +27°C° 0 mm 1 mps 740 mmHg 72%
    22:00 +26°C° 0 mm 1 mps 740 mmHg 74%
    23:00 +26°C° 0 mm 1 mps 739 mmHg 75%

    22 December, Friday

    Time Temperature Precipitation Wind Pressure Humidity
    00:00 +26°C° 0 mm 1 mps 739 mmHg 77%
    01:00 +25°C° 0 mm 1 mps 739 mmHg 79%
    02:00 +25°C° 0 mm 1 mps 739 mmHg 80%
    03:00 +24°C° 0 mm 1 mps 739 mmHg 82%
    04:00 +24°C° 0 mm 1 mps 739 mmHg 82%
    05:00 +24°C° 0 mm 1 mps 739 mmHg 83%
    06:00 +24°C° 0 mm 1 mps 740 mmHg 84%
    07:00 +26°C° 0 mm 1 mps 740 mmHg 73%
    08:00 +29°C° 0 mm 1 mps 741 mmHg 63%
    09:00 +31°C° 0 mm 1 mps 741 mmHg 53%
    10:00 +33°C° 0 mm 1 mps 741 mmHg 47%
    11:00 +36°C° 0 mm 2 mps 740 mmHg 42%
    12:00 +37°C° 0 mm 2 mps 739 mmHg 36%
    13:00 +37°C° 0 mm 2 mps 739 mmHg 35%
    14:00 +37°C° 0 mm 2 mps 738 mmHg 35%
    15:00 +37°C° 0 mm 2 mps 738 mmHg 34%
    16:00 +35°C° 0 mm 2 mps 738 mmHg 42%
    17:00 +31°C° 0 mm 2 mps 738 mmHg 50%
    18:00 +29°C° 0 mm 1 mps 739 mmHg 58%
    19:00 +28°C° 0 mm 1 mps 739 mmHg 62%
    20:00 +27°C° 0 mm 1 mps 739 mmHg 67%
    21:00 +26°C° 0 mm 1 mps 740 mmHg 71%
    22:00 +26°C° 0 mm 1 mps 740 mmHg 73%
    23:00 +25°C° 0 mm 1 mps 740 mmHg 75%
    Show more